This demonstration page uses our WeatherBlox Daily Observations layout. Learn more.

Left ArrowRight Arrow

Hourly Observations for January 13, 2018

Temp ( °F °C ) Dew Point ( °F °C ) Humidity (%) Winds ( mph kmh ) Pressure ( in mb ) Visibility ( mi km ) Precip ( " mm )
12:53 am 00:53 Cloudy 7 -13.9 0 -17.8 73 73 N 12 19 30.72 1040 10 16 0.00 0.00
1:53 am 01:53 Cloudy 6 -14.4 0 -17.8 76 76 N 10 17 30.72 1040 10 16 0.00 0.00
2:53 am 02:53 Cloudy 6 -14.4 0 -17.8 76 76 N 10 17 30.71 1040 10 16 0.00 0.00
3:53 am 03:53 Cloudy 6 -14.4 0 -17.8 76 76 N 7 11 30.71 1040 10 16 0.00 0.00
4:53 am 04:53 Cloudy with Light Snow 6 -14.4 1 -17.2 79 79 N 6 9 30.71 1040 5 8 0.00 0.03
5:53 am 05:53 Cloudy 6 -14.4 0 -17.8 76 76 N 6 9 30.72 1040 10 16 0.00 0.03
6:18 am 06:18 Cloudy 6 -14.4 0 -17.8 76 76 N 5 7 30.80 1043 10 16 0.00 0.00
6:53 am 06:53 Cloudy 6 -14.4 0 -17.8 76 76 N 6 9 30.73 1041 10 16 0.00 0.00
7:53 am 07:53 Cloudy 6 -14.4 1 -17.2 79 79 NNE 5 7 30.73 1041 10 16 0.00 0.00
8:53 am 08:53 Cloudy 6 -14.4 1 -17.2 79 79 E 5 7 30.72 1040 10 16 0.00 0.00
9:53 am 09:53 Cloudy 8 -13.3 2 -16.7 76 76 SSE 5 7 30.74 1041 10 16 0.00 0.00
10:53 am 10:53 Cloudy 9 -12.8 2 -16.7 73 73 S 6 9 30.73 1041 10 16 0.00 0.00
11:53 am 11:53 Cloudy 10 -12.2 4 -15.6 76 76 S 8 13 30.69 1039 10 16 0.00 0.00
12:45 pm 12:45 Cloudy 11 -11.7 4 -15.6 73 73 S 7 11 30.74 1041 9 14 0.00 0.03
12:53 pm 12:53 Cloudy 11 -11.7 5 -15 77 77 SSW 8 13 30.66 1038 9 14 0.00 0.03
1:53 pm 13:53 Cloudy 12 -11.1 5 -15 73 73 SSE 7 11 30.61 1037 10 16 0.00 0.00
2:45 pm 14:45 Cloudy 13 -10.6 6 -14.4 74 74 SSW 6 9 30.62 1037 10 16 0.00 0.00
2:53 pm 14:53 Cloudy 12 -11.1 5 -15 73 73 SSW 8 13 30.59 1036 10 16 0.00 0.00
3:13 pm 15:13 Cloudy with Light Snow 13 -10.6 6 -14.4 74 74 S 6 9 30.62 1037 7 11 0.00 0.03
3:44 pm 15:44 Cloudy 12 -11 7 -14 79 79 S 6 9 30.62 1037 10 16 0.00 0.00
3:53 pm 15:53 Cloudy 13 -10.6 6 -14.4 74 74 S 8 13 30.57 1035 10 16 0.00 0.03
4:53 pm 16:53 Cloudy 14 -10 6 -14.4 71 71 S 8 13 30.57 1035 10 16 0.00 0.00
5:53 pm 17:53 Cloudy with Light Snow 14 -10 6 -14.4 71 71 S 7 11 30.56 1035 8 13 0.00 0.03
6:53 pm 18:53 Cloudy with Light Snow 14 -10 6 -14.4 71 71 S 8 13 30.57 1035 4 6 0.00 0.03
7:53 pm 19:53 Cloudy with Light Snow 13 -10.6 8 -13.3 81 81 S 8 13 30.54 1034 3 5 0.00 0.03
8:13 pm 20:13 Cloudy with Light Snow 13 -10.6 9 -12.8 84 84 S 9 15 30.59 1036 2 3 0.00 0.03
8:53 pm 20:53 Cloudy with Light Snow 13 -10.6 9 -12.8 84 84 S 9 15 30.52 1034 3 4 0.00 0.03
9:11 pm 21:11 Cloudy with Light Snow 13 -10.6 10 -12.2 88 88 SSE 7 11 30.56 1035 3 5 0.00 0.03
9:18 pm 21:18 Cloudy with Light Snow 12 -11 9 -13 85 85 SSE 9 15 30.56 1035 3 4 0.00 0.00
9:26 pm 21:26 Cloudy with Light Snow 12 -11 10 -12 92 92 S 8 13 30.56 1035 2 3 0.00 0.00
9:37 pm 21:37 Cloudy with Light Snow 13 -10.6 10 -12.2 88 88 S 8 13 30.56 1035 4 6 0.00 0.03
9:53 pm 21:53 Cloudy with Light Snow 14 -10 10 -12.2 84 84 S 8 13 30.52 1034 3 4 0.00 0.03
10:23 pm 22:23 Cloudy with Light Snow 14 -10 10 -12.2 84 84 S 9 15 30.56 1035 3 5 0.00 0.03
10:32 pm 22:32 Cloudy with Light Snow 14 -10 10 -12.2 84 84 S 8 13 30.56 1035 2 3 0.00 0.03
10:53 pm 22:53 Cloudy with Light Snow 14 -10 10 -12.2 84 84 undefined N/A 30.51 1033 2 3 0.00 0.03
11:51 pm 23:51 Mostly Cloudy with Light Snow 14 -10 10 -12 85 85 S 8 13 30.56 1035 1 1 0.02 0.51
11:53 pm 23:53 Mostly Cloudy with Light Snow 14 -10 10 -12.2 84 84 S 8 13 30.50 1033 1 1 0.02 0.51

Powered by AerisWeather